Time,TemperatureF,DewpointF,PressureIn,WindDirection,WindDirectionDegrees,WindSpeedMPH,WindSpeedGustMPH,Humidity,HourlyPrecipIn,Conditions,Clouds,dailyrainin,SoftwareType,DateUTC
2013-11-17 00:05:00,46.4,32.0,29.71,WSW,257,0.0,7.0,58,0.00,,,0.00,weatherlink.com 1.10,2013-11-17 07:05:00,
2013-11-17 00:21:00,46.9,33.0,29.71,SW,222,3.0,10.0,58,0.00,,,0.00,weatherlink.com 1.10,2013-11-17 07:21:00,
2013-11-17 00:36:00,47.9,32.0,29.71,SW,234,12.0,19.0,55,0.00,,,0.00,weatherlink.com 1.10,2013-11-17 07:36:00,
2013-11-17 00:51:00,47.7,32.0,29.71,SW,220,0.0,13.0,55,0.00,,,0.00,weatherlink.com 1.10,2013-11-17 07:51:00,
2013-11-17 01:06:00,47.5,32.0,29.72,SSW,196,3.0,14.0,56,0.00,,,0.00,weatherlink.com 1.10,2013-11-17 08:06:00,
2013-11-17 01:21:00,47.4,32.0,29.71,WSW,238,8.0,12.0,56,0.00,,,0.00,weatherlink.com 1.10,2013-11-17 08:21:00,
2013-11-17 01:36:00,47.3,33.0,29.71,WSW,240,5.0,14.0,57,0.00,,,0.00,weatherlink.com 1.10,2013-11-17 08:36:00,
2013-11-17 01:51:00,48.0,31.0,29.71,WSW,257,9.0,26.0,53,0.00,,,0.00,weatherlink.com 1.10,2013-11-17 08:51:00,
2013-11-17 02:06:00,48.0,31.0,29.70,West,269,10.0,26.0,52,0.00,,,0.00,weatherlink.com 1.10,2013-11-17 09:06:00,
2013-11-17 02:21:00,47.9,30.0,29.72,West,263,4.0,28.0,51,0.00,,,0.00,weatherlink.com 1.10,2013-11-17 09:21:00,
2013-11-17 02:36:00,47.6,31.0,29.73,West,268,24.0,24.0,53,0.00,,,0.00,weatherlink.com 1.10,2013-11-17 09:36:00,
2013-11-17 02:51:00,47.0,31.0,29.74,West,267,7.0,17.0,54,0.00,,,0.00,weatherlink.com 1.10,2013-11-17 09:51:00,
2013-11-17 03:06:00,46.8,31.0,29.74,SSW,209,5.0,15.0,54,0.00,,,0.00,weatherlink.com 1.10,2013-11-17 10:06:00,
2013-11-17 03:21:00,46.2,31.0,29.74,WSW,242,11.0,13.0,56,0.00,,,0.00,weatherlink.com 1.10,2013-11-17 10:21:00,
2013-11-17 03:36:00,45.7,31.0,29.74,WSW,248,6.0,15.0,57,0.00,,,0.00,weatherlink.com 1.10,2013-11-17 10:36:00,
2013-11-17 03:51:00,45.3,31.0,29.75,WSW,248,7.0,13.0,58,0.00,,,0.00,weatherlink.com 1.10,2013-11-17 10:51:00,
2013-11-17 04:06:00,44.7,31.0,29.76,West,262,3.0,11.0,59,0.00,,,0.00,weatherlink.com 1.10,2013-11-17 11:06:00,
2013-11-17 04:21:00,44.1,31.0,29.76,WSW,241,0.0,8.0,61,0.00,,,0.00,weatherlink.com 1.10,2013-11-17 11:21:00,
2013-11-17 04:36:00,43.6,31.0,29.77,WSW,243,4.0,8.0,62,0.00,,,0.00,weatherlink.com 1.10,2013-11-17 11:36:00,
2013-11-17 04:51:00,43.4,31.0,29.77,WSW,239,5.0,7.0,62,0.00,,,0.00,weatherlink.com 1.10,2013-11-17 11:51:00,
2013-11-17 05:06:00,43.8,31.0,29.78,West,261,5.0,11.0,61,0.00,,,0.00,weatherlink.com 1.10,2013-11-17 12:06:00,
2013-11-17 05:21:00,43.8,31.0,29.79,WSW,239,1.0,9.0,60,0.00,,,0.00,weatherlink.com 1.10,2013-11-17 12:21:00,
2013-11-17 05:36:00,43.2,31.0,29.79,WSW,241,4.0,8.0,62,0.00,,,0.00,weatherlink.com 1.10,2013-11-17 12:36:00,
2013-11-17 05:51:00,43.2,31.0,29.80,WSW,250,5.0,7.0,62,0.00,,,0.00,weatherlink.com 1.10,2013-11-17 12:51:00,
2013-11-17 06:06:00,43.3,30.0,29.80,WSW,249,0.0,6.0,61,0.00,,,0.00,weatherlink.com 1.10,2013-11-17 13:06:00,
2013-11-17 06:21:00,42.7,31.0,29.81,SW,232,0.0,4.0,63,0.00,,,0.00,weatherlink.com 1.10,2013-11-17 13:21:00,
2013-11-17 06:36:00,40.6,30.0,29.82,SSW,203,0.0,0.0,67,0.00,,,0.00,weatherlink.com 1.10,2013-11-17 13:36:00,
2013-11-17 06:51:00,38.7,30.0,29.83,SSW,203,0.0,0.0,72,0.00,,,0.00,weatherlink.com 1.10,2013-11-17 13:51:00,
2013-11-17 07:07:00,37.2,30.0,29.84,SSW,203,0.0,0.0,75,0.00,,,0.00,weatherlink.com 1.10,2013-11-17 14:07:00,
2013-11-17 07:22:00,37.2,31.0,29.85,SSW,203,0.0,0.0,77,0.00,,,0.00,weatherlink.com 1.10,2013-11-17 14:22:00,
2013-11-17 07:37:00,38.3,31.0,29.86,SSW,203,0.0,0.0,76,0.00,,,0.00,weatherlink.com 1.10,2013-11-17 14:37:00,
2013-11-17 07:52:00,41.1,32.0,29.86,North,350,0.0,0.0,69,0.00,,,0.00,weatherlink.com 1.10,2013-11-17 14:52:00,
2013-11-17 08:07:00,43.8,30.0,29.87,NW,324,0.0,4.0,59,0.00,,,0.00,weatherlink.com 1.10,2013-11-17 15:07:00,
2013-11-17 08:22:00,45.5,30.0,29.88,NNW,338,0.0,5.0,54,0.00,,,0.00,weatherlink.com 1.10,2013-11-17 15:22:00,
2013-11-17 08:37:00,46.8,29.0,29.88,NNW,331,1.0,8.0,51,0.00,,,0.00,weatherlink.com 1.10,2013-11-17 15:37:00,
2013-11-17 08:52:00,47.7,29.0,29.89,North,360,3.0,10.0,49,0.00,,,0.00,weatherlink.com 1.10,2013-11-17 15:52:00,
2013-11-17 09:07:00,48.3,30.0,29.89,NNW,327,6.0,10.0,49,0.00,,,0.00,weatherlink.com 1.10,2013-11-17 16:07:00,
2013-11-17 09:22:00,48.7,30.0,29.89,North,355,7.0,12.0,49,0.00,,,0.00,weatherlink.com 1.10,2013-11-17 16:22:00,
2013-11-17 09:37:00,49.4,31.0,29.90,NNW,340,0.0,11.0,49,0.00,,,0.00,weatherlink.com 1.10,2013-11-17 16:37:00,
2013-11-17 09:52:00,50.1,31.0,29.90,NNW,335,5.0,10.0,48,0.00,,,0.00,weatherlink.com 1.10,2013-11-17 16:52:00,
2013-11-17 10:07:00,51.5,31.0,29.90,West,270,7.0,11.0,45,0.00,,,0.00,weatherlink.com 1.10,2013-11-17 17:07:00,
2013-11-17 10:22:00,51.9,31.0,29.90,NNE,19,2.0,12.0,45,0.00,,,0.00,weatherlink.com 1.10,2013-11-17 17:22:00,
2013-11-17 10:37:00,51.9,32.0,29.90,North,350,7.0,14.0,46,0.00,,,0.00,weatherlink.com 1.10,2013-11-17 17:37:00,
2013-11-17 10:52:00,52.5,32.0,29.90,North,355,7.0,12.0,45,0.00,,,0.00,weatherlink.com 1.10,2013-11-17 17:52:00,
2013-11-17 11:07:00,52.9,31.0,29.90,NW,324,0.0,10.0,44,0.00,,,0.00,weatherlink.com 1.10,2013-11-17 18:07:00,
2013-11-17 11:22:00,53.6,33.0,29.90,NNE,20,1.0,11.0,45,0.00,,,0.00,weatherlink.com 1.10,2013-11-17 18:22:00,
2013-11-17 11:37:00,54.4,32.0,29.89,North,5,4.0,9.0,43,0.00,,,0.00,weatherlink.com 1.10,2013-11-17 18:37:00,
2013-11-17 11:52:00,54.8,32.0,29.88,NNE,15,1.0,9.0,42,0.00,,,0.00,weatherlink.com 1.10,2013-11-17 18:52:00,
2013-11-17 12:07:00,56.3,31.0,29.87,NNW,335,11.0,13.0,39,0.00,,,0.00,weatherlink.com 1.10,2013-11-17 19:07:00,
2013-11-17 12:22:00,56.6,32.0,29.87,ENE,61,1.0,11.0,39,0.00,,,0.00,weatherlink.com 1.10,2013-11-17 19:22:00,
2013-11-17 12:37:00,56.5,31.0,29.87,NNW,338,5.0,14.0,38,0.00,,,0.00,weatherlink.com 1.10,2013-11-17 19:37:00,
2013-11-17 12:52:00,56.9,31.0,29.86,NNE,24,9.0,12.0,38,0.00,,,0.00,weatherlink.com 1.10,2013-11-17 19:52:00,
2013-11-17 13:07:00,57.1,31.0,29.87,NNW,339,5.0,13.0,38,0.00,,,0.00,weatherlink.com 1.10,2013-11-17 20:07:00,
2013-11-17 13:22:00,57.5,32.0,29.86,North,355,4.0,13.0,38,0.00,,,0.00,weatherlink.com 1.10,2013-11-17 20:22:00,
2013-11-17 13:37:00,57.5,31.0,29.86,North,350,4.0,14.0,37,0.00,,,0.00,weatherlink.com 1.10,2013-11-17 20:37:00,
2013-11-17 13:52:00,57.9,32.0,29.86,WNW,302,1.0,17.0,37,0.00,,,0.00,weatherlink.com 1.10,2013-11-17 20:52:00,
2013-11-17 14:07:00,57.5,32.0,29.85,North,5,6.0,12.0,38,0.00,,,0.00,weatherlink.com 1.10,2013-11-17 21:07:00,
2013-11-17 14:22:00,57.5,32.0,29.85,NNW,328,2.0,12.0,38,0.00,,,0.00,weatherlink.com 1.10,2013-11-17 21:22:00,
2013-11-17 14:37:00,57.8,32.0,29.86,NNE,13,0.0,10.0,38,0.00,,,0.00,weatherlink.com 1.10,2013-11-17 21:37:00,
2013-11-17 14:52:00,57.6,32.0,29.86,North,360,1.0,10.0,38,0.00,,,0.00,weatherlink.com 1.10,2013-11-17 21:52:00,
2013-11-17 15:08:00,57.7,31.0,29.86,North,355,5.0,10.0,37,0.00,,,0.00,weatherlink.com 1.10,2013-11-17 22:08:00,
2013-11-17 15:23:00,57.8,31.0,29.87,North,360,0.0,11.0,37,0.00,,,0.00,weatherlink.com 1.10,2013-11-17 22:23:00,
2013-11-17 15:38:00,57.2,32.0,29.88,NNW,336,1.0,7.0,38,0.00,,,0.00,weatherlink.com 1.10,2013-11-17 22:38:00,
2013-11-17 15:53:00,57.2,32.0,29.88,North,9,0.0,10.0,38,0.00,,,0.00,weatherlink.com 1.10,2013-11-17 22:53:00,
2013-11-17 16:08:00,56.9,31.0,29.89,North,355,0.0,7.0,38,0.00,,,0.00,weatherlink.com 1.10,2013-11-17 23:08:00,
2013-11-17 16:23:00,56.7,31.0,29.89,North,349,1.0,9.0,38,0.00,,,0.00,weatherlink.com 1.10,2013-11-17 23:23:00,
2013-11-17 16:38:00,56.6,30.0,29.89,NNE,14,9.0,9.0,37,0.00,,,0.00,weatherlink.com 1.10,2013-11-17 23:38:00,
2013-11-17 16:53:00,55.8,30.0,29.90,North,5,0.0,11.0,38,0.00,,,0.00,weatherlink.com 1.10,2013-11-17 23:53:00,
2013-11-17 17:08:00,55.0,30.0,29.90,NNE,14,3.0,8.0,39,0.00,,,0.00,weatherlink.com 1.10,2013-11-18 00:08:00,
2013-11-17 17:23:00,54.5,30.0,29.91,North,360,0.0,10.0,39,0.00,,,0.00,weatherlink.com 1.10,2013-11-18 00:23:00,
2013-11-17 17:38:00,53.8,30.0,29.91,North,355,1.0,9.0,40,0.00,,,0.00,weatherlink.com 1.10,2013-11-18 00:38:00,
2013-11-17 17:53:00,53.2,30.0,29.92,NNE,19,0.0,6.0,41,0.00,,,0.00,weatherlink.com 1.10,2013-11-18 00:53:00,
2013-11-17 18:08:00,52.4,30.0,29.93,NNE,18,0.0,5.0,42,0.00,,,0.00,weatherlink.com 1.10,2013-11-18 01:08:00,
2013-11-17 18:23:00,51.9,30.0,29.93,NNW,344,0.0,3.0,43,0.00,,,0.00,weatherlink.com 1.10,2013-11-18 01:23:00,
2013-11-17 18:38:00,51.4,29.0,29.94,North,5,0.0,1.0,43,0.00,,,0.00,weatherlink.com 1.10,2013-11-18 01:38:00,
2013-11-17 18:53:00,50.9,29.0,29.95,North,5,0.0,0.0,43,0.00,,,0.00,weatherlink.com 1.10,2013-11-18 01:53:00,
2013-11-17 19:08:00,49.8,30.0,29.95,North,5,0.0,0.0,47,0.00,,,0.00,weatherlink.com 1.10,2013-11-18 02:08:00,
2013-11-17 19:23:00,48.5,30.0,29.96,North,5,0.0,0.0,49,0.00,,,0.00,weatherlink.com 1.10,2013-11-18 02:23:00,
2013-11-17 19:38:00,48.4,29.0,29.96,North,350,0.0,0.0,47,0.00,,,0.00,weatherlink.com 1.10,2013-11-18 02:38:00,
2013-11-17 19:53:00,48.8,31.0,29.97,NW,304,0.0,2.0,50,0.00,,,0.00,weatherlink.com 1.10,2013-11-18 02:53:00,
2013-11-17 20:08:00,46.3,31.0,29.97,NW,304,0.0,0.0,56,0.00,,,0.00,weatherlink.com 1.10,2013-11-18 03:08:00,
2013-11-17 20:23:00,45.1,32.0,29.97,NW,304,0.0,0.0,60,0.00,,,0.00,weatherlink.com 1.10,2013-11-18 03:23:00,
2013-11-17 20:38:00,43.9,31.0,29.98,NW,304,0.0,0.0,62,0.00,,,0.00,weatherlink.com 1.10,2013-11-18 03:38:00,
2013-11-17 20:53:00,43.3,31.0,29.99,NW,304,0.0,0.0,63,0.00,,,0.00,weatherlink.com 1.10,2013-11-18 03:53:00,
2013-11-17 21:08:00,42.8,32.0,29.99,ENE,72,0.0,0.0,65,0.00,,,0.00,weatherlink.com 1.10,2013-11-18 04:08:00,
2013-11-17 21:23:00,42.1,31.0,30.00,ENE,72,0.0,0.0,65,0.00,,,0.00,weatherlink.com 1.10,2013-11-18 04:23:00,
2013-11-17 21:38:00,41.6,32.0,30.00,ENE,72,0.0,0.0,68,0.00,,,0.00,weatherlink.com 1.10,2013-11-18 04:38:00,
2013-11-17 21:53:00,41.0,31.0,30.01,ENE,72,0.0,0.0,68,0.00,,,0.00,weatherlink.com 1.10,2013-11-18 04:53:00,
2013-11-17 22:08:00,40.9,31.0,30.02,ENE,72,0.0,0.0,68,0.00,,,0.00,weatherlink.com 1.10,2013-11-18 05:08:00,
2013-11-17 22:23:00,40.1,31.0,30.02,ENE,72,0.0,0.0,69,0.00,,,0.00,weatherlink.com 1.10,2013-11-18 05:23:00,
2013-11-17 22:38:00,39.5,31.0,30.02,ENE,72,0.0,0.0,71,0.00,,,0.00,weatherlink.com 1.10,2013-11-18 05:38:00,
2013-11-17 22:53:00,38.9,31.0,30.02,ENE,72,0.0,0.0,72,0.00,,,0.00,weatherlink.com 1.10,2013-11-18 05:53:00,
2013-11-17 23:08:00,38.6,31.0,30.03,ENE,72,0.0,0.0,73,0.00,,,0.00,weatherlink.com 1.10,2013-11-18 06:08:00,
2013-11-17 23:23:00,38.6,31.0,30.04,ENE,72,0.0,0.0,73,0.00,,,0.00,weatherlink.com 1.10,2013-11-18 06:23:00,
2013-11-17 23:38:00,38.6,31.0,30.04,ENE,72,0.0,0.0,74,0.00,,,0.00,weatherlink.com 1.10,2013-11-18 06:38:00,
2013-11-17 23:53:00,38.2,31.0,30.04,ENE,72,0.0,0.0,75,0.00,,,0.00,weatherlink.com 1.10,2013-11-18 06:53:00,